This demonstration page uses our WeatherBlox Daily Observations layout. Learn more.

Left ArrowRight Arrow

Hourly Observations for November 4, 2015

Temp ( °F °C ) Dew Point ( °F °C ) Humidity (%) Winds ( mph kmh ) Pressure ( in mb ) Visibility ( mi km ) Precip ( " mm )
12:53 am 00:53 Clear 60 15.6 54 12.2 80 80 S 15 24 29.78 1008 10 16 0.00 0.00
1:53 am 01:53 Clear 60 15.6 54 12.2 80 80 S 14 22 29.76 1008 10 16 0.00 0.00
2:53 am 02:53 Clear 59 15 54 12.2 83 83 S 14 22 29.76 1008 10 16 0.00 0.00
3:53 am 03:53 Clear 57 13.9 54 12.2 90 90 S 12 19 29.75 1008 9 14 0.00 0.00
4:53 am 04:53 Clear 57 13.9 54 12.2 90 90 S 14 22 29.77 1008 9 14 0.00 0.00
5:11 am 05:11 Partly Cloudy 56 13.3 54 12.2 93 93 S 10 17 29.77 1008 7 11 0.00 0.00
5:23 am 05:23 Mostly Cloudy with Mist and Fog 56 13.3 54 12.2 93 93 S 14 22 29.77 1008 6 10 0.00 0.00
5:53 am 05:53 Cloudy with Mist and Fog 56 13.3 54 12.2 93 93 S 16 26 29.78 1008 6 10 0.00 0.00
6:53 am 06:53 Cloudy with Mist and Fog 57 13.9 55 12.8 93 93 S 13 20 29.79 1009 6 10 0.00 0.00
7:53 am 07:53 Cloudy 58 14.4 55 12.8 90 90 S 14 22 29.79 1009 7 11 0.00 0.00
8:53 am 08:53 Cloudy 60 15.6 55 12.8 84 84 S 17 28 29.81 1010 8 13 0.00 0.00
9:53 am 09:53 Cloudy 62 16.7 55 12.8 78 78 SSW 18 30 29.80 1009 9 14 0.00 0.00
10:22 am 10:22 Partly Cloudy 63 17 55 13 77 77 S 22 35 29.77 1008 10 16 0.00 0.00
10:53 am 10:53 Partly Cloudy 65 18.3 55 12.8 70 70 S 17 28 29.80 1009 10 16 0.00 0.00
11:53 am 11:53 Sunny 68 20 56 13.3 65 65 S 17 28 29.78 1008 10 16 0.00 0.00
12:53 pm 12:53 Sunny 71 21.7 56 13.3 59 59 S 21 33 29.75 1007 10 16 0.00 0.00
1:53 pm 13:53 Sunny 72 22.2 56 13.3 57 57 S 21 33 29.73 1007 10 16 0.00 0.00
2:53 pm 14:53 Sunny 73 22.8 56 13.3 55 55 S 20 31 29.72 1006 10 16 0.00 0.00
3:53 pm 15:53 Sunny 71 21.7 55 12.8 57 57 S 20 31 29.72 1007 10 16 0.00 0.00
4:53 pm 16:53 Sunny 68 20 55 12.8 63 63 S 21 33 29.73 1007 10 16 0.00 0.00
5:53 pm 17:53 Mostly Clear 65 18.3 55 12.8 70 70 S 15 24 29.74 1007 10 16 0.00 0.00
6:14 pm 18:14 Mostly Cloudy 66 19 55 13 68 68 S 17 28 29.71 1006 10 16 0.00 0.00
6:53 pm 18:53 Cloudy 66 18.9 56 13.3 70 70 S 21 33 29.72 1007 10 16 0.00 0.00
7:53 pm 19:53 Cloudy 66 18.9 57 13.9 73 73 S 20 31 29.74 1007 10 16 0.00 0.00
8:53 pm 20:53 Cloudy 65 18.3 56 13.3 73 73 S 17 28 29.73 1007 10 16 0.00 0.00
9:53 pm 21:53 Cloudy 64 17.8 57 13.9 78 78 S 13 20 29.72 1007 10 16 0.00 0.00
10:53 pm 22:53 Cloudy 64 17.8 57 13.9 78 78 S 17 28 29.71 1006 10 16 0.00 0.00
11:53 pm 23:53 Cloudy 64 17.8 57 13.9 78 78 SSW 16 26 29.72 1006 10 16 0.00 0.00

Powered by AerisWeather